Tracking 29088 objects as of 14-Jul-2024
HD Live streaming from Space Station
objects crossing your sky now

COSMOS 1275 DEB

Track COSMOS 1275 DEB now!
10-day predictions


NORAD ID: 33503
Int'l Code: 1981-053MZ
Perigee: 583.0 km
Apogee: 607.5 km
Inclination: 82.9 °
Period: 96.4 minutes
Semi major axis: 6966 km
RCS: 0.0116 m2 (small)
Launch date: June 4, 1981
Source: Commonwealth of Independent States (former USSR) (CIS)
Launch site: PLESETSK MISSILE AND SPACE COMPLEX (PKMTR)

Note: This is SATELLITE DEBRIS
Your satellite tracking list
Your tracking list is empty




NASA's NSSDC Master Catalog

Two Line Element Set (TLE):
1 33503U 81053MT  24195.88702290  .00070102  00000-0  66385-2 0  9998
2 33503  82.9455 146.8326 0017583 117.9385 242.3619 14.93158254820017
Source of the keplerian elements: AFSPC